Regional Weather Roundup
Issued by NWS Albany, NY

Home | Current Version | Previous Version | Graphics & Text | Print | Product List | Glossary On
Versions: 1 2 3 4 5 6 7 8 9 10 11 12 13 14 15 16 17 18 19 20 21 22 23 24 25 26 27
000
ASUS41 KALY 310310
RWRALY

NEW YORK STATE HOURLY WEATHER ROUNDUP
NATIONAL WEATHER SERVICE ALBANY NY
1100 PM EDT SAT JUL 30 2016

NOTE: "FAIR" INDICATES FEW OR NO CLOUDS BELOW 12,000 FEET WITH NO
SIGNIFICANT WEATHER AND/OR NO OBSTRUCTIONS TO VISIBILITY.

NYZ032-033-038>043-046>054-057>066-NYZ062>081-082-084-310400-
EAST


CITY           SKY/WX    TMP DP  RH WIND       PRES   REMARKS
ALBANY         LGT RAIN  69  65  86 S6        30.07S
GLENS FALLS    CLOUDY    68  60  75 S3        30.08R
POUGHKEEPSIE   CLOUDY    73  69  87 CALM      30.04F
NEWBURGH       DRIZZLE   70  70 100 CALM      30.07F FOG
MONTGOMERY     CLOUDY    69  68  96 NE3       30.06F
WHITE PLAINS   LGT RAIN  73  72  96 E3        30.05F FOG
ISLIP          CLOUDY    75  74  96 SE3       30.05F FOG
NEW YORK CITY  CLOUDY    77  73  87 E10       30.02F
CENTRAL PARK   CLOUDY    74  72  93 VRB3      30.06F FOG
$$

NYZ005>009-017-018-044>046-055-056-310400-
CENTRAL


CITY           SKY/WX    TMP DP  RH WIND       PRES   REMARKS
FULTON         CLOUDY    72  62  71 CALM      30.04F
SYRACUSE       CLOUDY    70  64  81 E6        30.04S
ROME           CLOUDY    70  63  78 CALM      30.07R
ELMIRA         LGT RAIN  68  64  87 NE6       30.03F
BINGHAMTON     CLOUDY    66  65  96 SE5       30.07S
MONTICELLO     CLOUDY    64  64 100 E3        30.11S
$$

NYZ026>034-041>043-087-310400-
NORTH


CITY           SKY/WX    TMP DP  RH WIND       PRES   REMARKS
WATERTOWN      PTCLDY    66  54  65 E7        30.06S
FORT DRUM      NOT AVBL
MASSENA        CLEAR     58  54  86 CALM      30.11R
SARANAC LAKE   CLEAR     58  52  80 NE6       30.14R
PLATTSBURGH    PTCLDY    61  56  83 CALM      30.10F
$$

NYZ001>004-010>016-019>021-085-310400-
WEST


CITY           SKY/WX    TMP DP  RH WIND       PRES   REMARKS
NIAGARA FALLS  MOCLDY    73  56  54 E6        30.03S
BUFFALO        MOCLDY    72  56  57 NE7       30.03S
DUNKIRK        MOCLDY    71  64  78 E7        30.00F
JAMESTOWN      PTCLDY    66  63  88 E6        30.03F
WELLSVILLE     CLOUDY    66  63  90 E7        30.09S
ROCHESTER      CLOUDY    74  59  59 E6        30.05S
PENN YAN       CLOUDY    69  65  86 CALM      30.05F
$$

             KEY
       WCI = WIND CHILL INDEX
       VSB = VISIBILITY
       HX  = HEAT INDEX
$$




USA.gov is the U.S. government's official web portal to all federal, state and local government web resources and services.